Location: 81360 Arifat, France
(43.7204°N, 2.3408°E)
Time: 03:31:42
(UTC+01:00)

ACS3 Solar Sail - Pass Details

Date: 14 October 2025
Orbit: 909 x 993 km, 97.3° (Epoch: 13 November)

Event Time Altitude Azimuth Distance (km) Brightness Sun altitude
Rises 04:46:32 0° 21° (NNE) 3,549 5.3 -35.6°
Reaches altitude 10° 04:49:15 10° 31° (NNE) 2,604 4.6 -35.2°
Maximum altitude 04:54:23 32° 94° (E) 1,523 3.2 -34.3°
Enters shadow 04:57:38 19° 143° (SE) 2,032 3.5 -33.8°
